"Pseudo-MPEC" for P21JQIu

Created 2023 Sep 19 21:22:33 UT using Find_Orb

Click here for an explanation of pseudo-MPECs

 
 Astrometry: 
     P21JQIu  C2023 09 13Ew%Zb']lk3T2tgZxgsuyf*9cblyHU%fVEAstrometryZLqdr+s*YF52
     P21JQIu  C2023 09 13`WM8,'$j@B,fAUAuuVA/NG9sefWDvU.4;5l,/4lOUGJUwE1rT:sZF52
     P21JQIu  C2023 09 13SmsJxyT-4Iv'/_o4K#^Z]FL7`LmGLfK$?LX'`\#Akc7mQqjvKMvRF52
     P21JQIu  C2023 09 13?\RE)yKoJOiv.p7js2[6I)B?2K9l#XO/#2.N(3$qcfgT0:gE+jNMF52
     P21JQIu* C2023 09 180(9TRr1e!uB4]Kpp)A4obhY/$a-405'6C4./y0*uDgFn8O5Lxwn1F52
     P21JQIu  C2023 09 18y$6;$wOh21redacted;$0E2?DvIstj@h\I#bW3T5#omx[g/_wTKRF52
     P21JQIu  C2023 09 18?LvcF?FoB.Kwclick?_+TbTGc,\PpA'here$GwWIp]EY]Y,ahX8-F52
     P21JQIu  C2023 09 18=C%Q=B]LSuSXv*iEEZcc9o$['CD99$DVF(0s5`G\16\1p[EYD9)#F52
     P21JQIu  C2023 09 18N0sq/g031AYm+,)kg*(xudckEc%CVbF*rtV[a@nra(fGhI8US@-NF52
     P21JQIu  C2023 09 18^Kt]4y'ja'N3!*oK=52yUYhforXLCeF+:+VhhDgI4(Qb;,GdIr\8F52
     P21JQIu KC2023 09 19*[GI%DGjjR^ObLr,mAtuL673]U\U7N:su2vVCDFO)P7/HC#i=xp.H21
     P21JQIu KC2023 09 19i)ky?G6machs`B))@)explanationYIYp3'n6KehAsXJeWifG6'1H21
     P21JQIu 1C2023 09 19.84785 23 29 33.08 +24 10 12.5    ~9JKq 21.3 VXNEOCP033
     P21JQIu 1C2023 09 19.85144 23 29 33.45 +24 10 05.4    ~9JKq 21.2 VXNEOCP033
     P21JQIu 1C2023 09 19.85502 23 29 33.82 +24 09 58.3    ~9JKq 21.3 VXNEOCP033

Station data:
(033) Karl Schwarzschild Observatory, Tautenburg  (N50.980137 E11.711240)
   Germany.  Observer B. Stecklum. 1.34-m f/3 Schmidt + CCD.
(F52) Pan-STARRS 2, Haleakala  (N20.707382 W156.255910)  US/Hawaii.
   Observers J. Bulger, T. Dukes, T. Lowe, A. Schultz, M. Willman. Measurers
   K. Chambers, S. Chastel, T. de Boer, L. Denneau, J. Fairlamb, H.
   Flewelling, M. Huber, C.-C. Lin, E. Magnier, Y. Ramanjooloo, R. Wainscoat,
   R. Weryk. 1.8-m Ritchey-Chrétien + CCD.
(H21) Astronomical Research Observatory, Westfield  (N39.483054 W87.968270)
   US/Illinois.  Observer R. Holmes. Measurers S. Foglia, L. Buzzi, T.
   Linder, R. Holmes. 0.76-m f/3.0 astrograph + CCD0.81-m f/4.0 astrograph +
   CCD0.61-m f/4.5 astrograph + CCD0.40-m f/5.32 astrograph + CCD.

Orbital elements:  P21JQIu
   Perihelion 2023 Oct 11.98549 +/- 0.0508 TT = 23:39:06 (JD 2460229.48549)
Epoch 2023 Sep 19.0 TT = JDT 2460206.5   Earth MOID: 0.1783      AutoNEOCP
M 349.35724461 +/- 0.020            (J2000 ecliptic)
n   0.46302053 +/- 0.00148          Peri.  177.12950 +/- 0.054
a   1.65476330 +/- 0.00352          Node   199.13511 +/- 0.012
e   0.2888611 +/- 0.00121           Incl.   11.13400 +/- 0.036
P   2.13/777.49d           H 23.75  G  0.15   U  8.4
q 1.17676647 +/- 0.000512    Q 2.13276012 +/- 0.00654
From 15 observations 2023 Sept. 13-19; mean residual 0".10
Residuals in arcseconds: 
230913 F52  .06+  .03+    230918 F52  .01+  .09+    230919 H21  .23+  .09-    
230913 F52  .08+  .09+    230918 F52  .05-  .07-    230919 H21  .12-  .24+    
230913 F52  .05-  .03-    230918 F52  .05-  .13-    230919 033  .02+  .14-    
230913 F52  .08-  .07-    230918 F52  .10-  .00     230919 033  .07+  .03+    
230918 F52  .10+  .07-    230918 F52  .02-  .10+    230919 033  .14+  .19+    

Ephemerides (geocentric):
Date (UTC) HH   RA             Dec           delta  r     elong  mag " sig PA
---- --------  ------------   ------------  ------ ------ -----  --- --------
2023 09 19 21  23 29 34.920   +24 09 37.95  .20431 1.1917 154.1 21.7 .146  81
2023 09 19 22  23 29 39.592   +24 08 11.66  .20421 1.1916 154.1 21.7 .150  80
2023 09 19 23  23 29 44.268   +24 06 45.18  .20411 1.1915 154.1 21.7 .155  80
2023 09 20 00  23 29 48.948   +24 05 18.53  .20401 1.1915 154.2 21.7 .160  80
2023 09 20 01  23 29 53.632   +24 03 51.69  .20392 1.1914 154.2 21.7 .164  80
2023 09 20 02  23 29 58.320   +24 02 24.68  .20382 1.1914 154.2 21.7 .169  80
2023 09 20 03  23 30 03.012   +24 00 57.48  .20372 1.1913 154.3 21.7 .174  80
2023 09 20 04  23 30 07.708   +23 59 30.10  .20362 1.1913 154.3 21.7 .178  80
2023 09 20 05  23 30 12.408   +23 58 02.54  .20352 1.1912 154.4 21.7 .183  80
2023 09 20 06  23 30 17.113   +23 56 34.80  .20343 1.1912 154.4 21.7 .188  80
2023 09 20 07  23 30 21.821   +23 55 06.89  .20333 1.1911 154.4 21.7 .193  81
2023 09 20 08  23 30 26.533   +23 53 38.78  .20323 1.1910 154.5 21.7 .198  81
2023 09 20 09  23 30 31.250   +23 52 10.50  .20313 1.1910 154.5 21.7 .203  81
2023 09 20 10  23 30 35.970   +23 50 42.04  .20304 1.1909 154.5 21.7 .208  81
2023 09 20 11  23 30 40.695   +23 49 13.40  .20294 1.1909 154.6 21.7 .213  81
2023 09 20 12  23 30 45.423   +23 47 44.58  .20284 1.1908 154.6 21.7 .219  81
2023 09 20 13  23 30 50.156   +23 46 15.58  .20275 1.1908 154.6 21.7 .224  81
2023 09 20 14  23 30 54.893   +23 44 46.39  .20265 1.1907 154.7 21.7 .229  81
2023 09 20 15  23 30 59.634   +23 43 17.03  .20256 1.1907 154.7 21.7 .234  81
2023 09 20 16  23 31 04.378   +23 41 47.49  .20246 1.1906 154.8 21.7 .240  81
2023 09 20 17  23 31 09.127   +23 40 17.77  .20237 1.1906 154.8 21.7 .245  81
2023 09 20 18  23 31 13.880   +23 38 47.86  .20227 1.1905 154.8 21.7 .251  81
2023 09 20 19  23 31 18.637   +23 37 17.78  .20217 1.1905 154.9 21.7 .256  81
2023 09 20 20  23 31 23.398   +23 35 47.52  .20208 1.1904 154.9 21.7 .262  81
2023 09 20 21  23 31 28.163   +23 34 17.08  .20199 1.1904 154.9 21.7 .268  82
2023 09 20 22  23 31 32.932   +23 32 46.46  .20189 1.1903 155.0 21.7 .273  82
2023 09 20 23  23 31 37.706   +23 31 15.66  .20180 1.1902 155.0 21.7 .279  82
2023 09 21 00  23 31 42.483   +23 29 44.68  .20170 1.1902 155.1 21.7 .285  82
2023 09 21 01  23 31 47.264   +23 28 13.52  .20161 1.1901 155.1 21.7 .291  82
2023 09 21 02  23 31 52.049   +23 26 42.18  .20151 1.1901 155.1 21.7 .297  82
2023 09 21 03  23 31 56.839   +23 25 10.66  .20142 1.1900 155.2 21.7 .303  82
2023 09 21 04  23 32 01.632   +23 23 38.96  .20133 1.1900 155.2 21.7 .309  82
2023 09 21 05  23 32 06.430   +23 22 07.08  .20123 1.1899 155.2 21.7 .315  83
2023 09 21 06  23 32 11.231   +23 20 35.03  .20114 1.1899 155.3 21.7 .321  83
2023 09 21 07  23 32 16.037   +23 19 02.79  .20105 1.1898 155.3 21.7 .327  83
2023 09 21 08  23 32 20.847   +23 17 30.38  .20095 1.1898 155.4 21.7 .334  83
2023 09 21 09  23 32 25.660   +23 15 57.79  .20086 1.1897 155.4 21.7 .340  83
2023 09 21 10  23 32 30.478   +23 14 25.02  .20077 1.1897 155.4 21.7 .346  83
2023 09 21 11  23 32 35.300   +23 12 52.07  .20068 1.1896 155.5 21.7 .353  83
2023 09 21 12  23 32 40.126   +23 11 18.94  .20059 1.1896 155.5 21.7 .359  84
2023 09 21 13  23 32 44.955   +23 09 45.63  .20049 1.1895 155.6 21.6 .366  84
2023 09 21 14  23 32 49.789   +23 08 12.15  .20040 1.1895 155.6 21.6 .373  84
2023 09 21 15  23 32 54.627   +23 06 38.49  .20031 1.1894 155.6 21.6 .379  84
2023 09 21 16  23 32 59.469   +23 05 04.65  .20022 1.1894 155.7 21.6 .386  84
2023 09 21 17  23 33 04.315   +23 03 30.63  .20013 1.1893 155.7 21.6 .393  84
2023 09 21 18  23 33 09.165   +23 01 56.43  .20004 1.1893 155.7 21.6 .400  84
2023 09 21 19  23 33 14.020   +23 00 22.06  .19995 1.1892 155.8 21.6 .407  85
2023 09 21 20  23 33 18.878   +22 58 47.50  .19986 1.1892 155.8 21.6 .414  85